This is the latest recevied weather packets stored in our database for station/object WA9NNN-10. If no packets are shown the sender has not sent any weather packets the latest 10 day(s).
| Time | Temp. | Humidity | Pressure | Rain* | Wind** | Luminosity | Snow |
|---|---|---|---|---|---|---|---|
| 1788182311 | 22.22° C | 86% | 1016.3 hPa | 2.54 mm | - | - | - |
| 1788182011 | 22.78° C | 86% | 1016.6 hPa | 0.76 mm | - | - | - |
| 1788181711 | 22.78° C | 85% | 1016.4 hPa | 0.76 mm | - | - | - |
| 1788181410 | 22.78° C | 85% | 1016.3 hPa | 0.76 mm | - | - | - |
| 1788181111 | 22.78° C | 84% | 1015.9 hPa | 0.51 mm | - | - | - |
| 1788180811 | 22.78° C | 84% | 1016.1 hPa | 0.51 mm | - | - | - |
| 1788180511 | 22.78° C | 84% | 1015.9 hPa | 0.76 mm | - | - | - |
| 1788180210 | 22.78° C | 83% | 1016 hPa | 0.76 mm | - | - | - |
| 1788179911 | 22.78° C | 83% | 1016 hPa | 0.76 mm | - | - | - |
| 1788179610 | 22.78° C | 83% | 1015.8 hPa | 1.27 mm | - | - | - |
| 1788179311 | 22.78° C | 82% | 1015.6 hPa | 1.27 mm | - | - | - |
| 1788179011 | 22.78° C | 82% | 1015.6 hPa | 1.27 mm | - | - | - |
| 1788178711 | 23.33° C | 81% | 1015.5 hPa | 1.27 mm | - | - | - |
| 1788178410 | 23.33° C | 81% | 1015.4 hPa | 0.76 mm | - | - | - |
| 1788178111 | 23.33° C | 79% | 1015.5 hPa | 0.76 mm | - | - | - |
| 1788177811 | 23.89° C | 78% | 1015.5 hPa | 0.76 mm | - | - | - |
| 1788177511 | 23.89° C | 77% | 1015.2 hPa | 0.76 mm | - | - | - |
| 1788177210 | 23.89° C | 76% | 1015.5 hPa | 0.76 mm | - | - | - |
| 1788176911 | 24.44° C | 74% | 1015.2 hPa | 0.51 mm | - | - | - |
| 1788176611 | 24.44° C | 74% | 1015 hPa | 0.51 mm | - | - | - |
| 1788176311 | 24.44° C | 72% | 1014.9 hPa | 0.51 mm | - | - | - |
| 1788176011 | 24.44° C | 71% | 1014.6 hPa | 0 mm | - | - | - |
| 1788175711 | 24.44° C | 71% | 1014.3 hPa | 0 mm | - | - | - |
| 1788175410 | 24.44° C | 71% | 1014.1 hPa | 0 mm | - | - | - |
| 1788175111 | 24.44° C | 71% | 1013.9 hPa | 0 mm | - | - | - |
* Rain latest hour (hover to see other rain measurements)
** Current wind speed in m/s (hover to see current wind gust speed)